Location: L�beck
(53.8752°N, 10.6787°E)
Time: 19:55:57
(UTC+01:00)

ISS - Pass Details

Date: 04 January 2018
Orbit: 401 x 407 km, 51.6° (Epoch: 17 January)

Event Time Altitude Azimuth Distance (km) Brightness Sun altitude
Exits shadow 06:55:27 20° 253° (WSW) 1,008 -2.3 -13.5°
Maximum altitude 06:57:31 59° 178° (S) 477 -3.4 -13.2°
Drops below altitude 10° 07:00:46 10° 99° (E) 1,470 0.4 -12.8°
Sets 07:02:52 0° 95° (E) 2,332 1.6 -12.5°
